This is the latest recevied weather packets stored in our database for station/object W9KHP-1. If no packets are shown the sender has not sent any weather packets the latest 10 day(s).
| Time | Temp. | Humidity | Pressure | Rain* | Wind** | Luminosity | Snow |
|---|---|---|---|---|---|---|---|
| 1777638630 | 11.67° C | 78% | 1017.8 hPa | 0 mm | - | 43 W/m² | - |
| 1777638327 | 11.67° C | 80% | 1017.7 hPa | 0 mm | - | 48 W/m² | - |
| 1777638023 | 11.67° C | 79% | 1017.4 hPa | 0 mm | - | 51 W/m² | - |
| 1777637720 | 11.67° C | 81% | 1017.5 hPa | 0 mm | - | 65 W/m² | - |
| 1777637416 | 11.67° C | 79% | 1017.6 hPa | 0 mm | - | 64 W/m² | - |
| 1777637114 | 11.11° C | 81% | 1017.4 hPa | 0 mm | - | 38 W/m² | - |
| 1777636810 | 11.11° C | 82% | 1017.4 hPa | 0 mm | - | 31 W/m² | - |
| 1777636506 | 11.67° C | 82% | 1017.4 hPa | 0 mm | - | 40 W/m² | - |
| 1777636202 | 11.11° C | 82% | 1017.2 hPa | 0 mm | - | 31 W/m² | - |
| 1777635896 | 11.11° C | 84% | 1017.1 hPa | 0 mm | - | 30 W/m² | - |
| 1777635593 | 11.11° C | 84% | 1017 hPa | 0 mm | - | 33 W/m² | - |
| 1777635290 | 11.11° C | 84% | 1016.8 hPa | 0 mm | - | 24 W/m² | - |
| 1777634986 | 11.67° C | 82% | 1016.8 hPa | 0 mm | - | 15 W/m² | - |
| 1777634678 | 11.11° C | 82% | 1016.6 hPa | 0 mm | - | 10 W/m² | - |
| 1777634376 | 11.11° C | 81% | 1016.6 hPa | 0 mm | - | 9 W/m² | - |
| 1777634072 | 11.11° C | 81% | 1016.6 hPa | 0 mm | - | 7 W/m² | - |
| 1777633768 | 11.11° C | 80% | 1016.7 hPa | 0 mm | - | 4 W/m² | - |
| 1777633466 | 11.11° C | 80% | 1016.4 hPa | 0 mm | - | 3 W/m² | - |
| 1777633164 | 11.11° C | 79% | 1016.5 hPa | 0 mm | - | 1 W/m² | - |
| 1777632861 | 11.11° C | 79% | 1016.3 hPa | 0 mm | - | 1 W/m² | - |
| 1777632555 | 11.11° C | 78% | 1016.4 hPa | 0 mm | - | 1 W/m² | - |
| 1777632254 | 11.11° C | 78% | 1016.3 hPa | 0 mm | - | 0 W/m² | - |
| 1777631950 | 11.11° C | 77% | 1016.3 hPa | 0 mm | - | 0 W/m² | - |
| 1777631649 | 11.11° C | 78% | 1016.5 hPa | 0 mm | - | 0 W/m² | - |
| 1777631345 | 11.11° C | 75% | 1016.3 hPa | 0 mm | - | 0 W/m² | - |
* Rain latest hour (hover to see other rain measurements)
** Current wind speed in m/s (hover to see current wind gust speed)